User: anonymous   Login
Location: Ash Swamp
(41.5170°N, 74.6157°W)
Time: 19:32:05
(UTC+00:00)
Language:

Cosmos 1633 - Orbit

View from above orbital plane
View from above orbital plane
View from above satellite
View from above satellite

Ground track
Ground track

The orbit data is extracted from the following two-line orbital elements,

1 15592U 85020A   20263.43351109 +.00000880 +00000-0 +27936-4 0  9993
2 15592 082.5397 204.0053 0010973 280.1693 079.8310 15.31208607946001
Epoch (UTC): 19 September 2020 10:24:15
Eccentricity: 0.0010973
inclination: 82.5397°
perigee height: 464 km
apogee height: 480 km
right ascension of ascending node: 204.0053°
argument of perigee: 280.1693°
revolutions per day: 15.31208607
mean anomaly at epoch: 79.8310°
orbit number at epoch: 94600

The dashed part of the orbit path shows where the satellite is in the earth's shadow,  

DLR